Ankeny, IA

4:27 PM CDT on August 18, 2017 (GMT -0500)
Ankeny Regional

Weather History for KIKV - October, 2013

Change the Weather History Date:

Tuesday, October 15, 2013

  Actual Average (KDSM) Record (KDSM)
Temperature  
Mean Temperature 54 °F -  
Max Temperature 60 °F 63 °F 89 °F (1938)
Min Temperature 48 °F 43 °F 28 °F (1952)
Degree Days  
Heating Degree Days 11    
Growing Degree Days 4 (Base 50)    
Moisture  
Dew Point 46 °F    
Average Humidity 79    
Maximum Humidity 100    
Minimum Humidity 67    
Precipitation  
Precipitation 0.46 in - - ()
Sea Level Pressure  
Sea Level Pressure 29.86 in    
Wind  
Wind Speed 14 mph (WSW)    
Max Wind Speed 20 mph    
Max Gust Speed 28 mph    
Visibility 10 miles    
Events Rain    
Averages and records for this station are not official NWS values.
T = Trace of Precipitation, MM = Missing Value Source: NWS Daily Summary

Daily Weather History Graph

Daily Weather History Graph

Search for Another Location

Airport or City:

Trip Planner

Search our weather history database for the weather conditions in past years. The results will help you decide how hot, cold, wet, or windy it might be!

Date:

Astronomy

Oct. 15, 2013 Rise Set
Actual Time 7:26 AM CDT 6:32 PM CDT
Civil Twilight 6:58 AM CDT 7:00 PM CDT
Nautical Twilight 6:26 AM CDT 7:32 PM CDT
Astronomical Twilight 5:54 AM CDT 8:04 PM CDT
Moon 4:40 PM CDT (10/15) 3:47 AM CDT (10/15)
Length of Visible Light 12h 01m
Length of Day
11h 05m
Waxing Gibbous, 88% of the Moon is Illuminated
Oct 15
Waxing Gibbous
Oct 18
Full
Oct 26
Last Quarter
Nov 3
New
Nov 9
First Quarter

Hourly Weather History & Observations

Time (CDT) Temp. Dew Point Humidity Pressure Visibility Wind Dir Wind Speed Gust Speed Precip Events Conditions
12:15 AM 59.0 °F 50.0 °F 72% 29.83 in 6.0 mi SSE 15.0 mph 24.2 mph N/A   Light Drizzle
12:35 AM 57.2 °F 51.8 °F 82% 29.86 in 3.0 mi WSW 11.5 mph 26.5 mph N/A Rain Light Rain
12:55 AM 55.4 °F 53.6 °F 94% 29.85 in 1.2 mi SSE 9.2 mph - 0.40 in Rain Heavy Rain
1:15 AM 55.4 °F 53.6 °F 94% 29.84 in 5.0 mi SSE 10.4 mph - N/A Rain Light Rain
1:35 AM 55.4 °F 53.6 °F 94% 29.83 in 4.0 mi SSE 10.4 mph - N/A   Light Drizzle
1:55 AM 55.4 °F 55.4 °F 100% 29.80 in 9.0 mi SE 12.7 mph 19.6 mph 0.06 in   Overcast
2:15 AM 57.2 °F 55.4 °F 94% 29.79 in - SSE 13.8 mph - N/A   Overcast
2:35 AM 57.2 °F 55.4 °F 94% 29.78 in 10.0 mi South 17.3 mph 24.2 mph N/A   Overcast
2:55 AM 57.2 °F 55.4 °F 94% 29.79 in 10.0 mi South 13.8 mph - N/A   Overcast
3:15 AM 59.0 °F 57.2 °F 94% 29.79 in 9.0 mi South 12.7 mph 19.6 mph N/A   Overcast
3:35 AM 59.0 °F 57.2 °F 94% 29.78 in 10.0 mi South 12.7 mph 21.9 mph N/A   Overcast
3:55 AM 59.0 °F 57.2 °F 94% 29.77 in 10.0 mi South 9.2 mph 18.4 mph N/A   Overcast
4:15 AM 59.0 °F 57.2 °F 94% 29.77 in 10.0 mi South 12.7 mph - N/A   Overcast
4:35 AM 60.8 °F 57.2 °F 88% 29.77 in 10.0 mi South 13.8 mph 19.6 mph N/A   Overcast
4:55 AM 60.8 °F 57.2 °F 88% 29.78 in 10.0 mi WSW 12.7 mph 21.9 mph N/A   Overcast
5:15 AM 55.4 °F 51.8 °F 88% 29.80 in 10.0 mi WSW 12.7 mph 24.2 mph N/A   Overcast
5:35 AM 55.4 °F 50.0 °F 82% 29.81 in 10.0 mi West 17.3 mph - N/A   Overcast
5:55 AM 53.6 °F 48.2 °F 82% 29.82 in 10.0 mi West 12.7 mph 25.3 mph N/A   Overcast
6:15 AM 53.6 °F 48.2 °F 82% 29.82 in 10.0 mi West 10.4 mph 18.4 mph N/A   Overcast
6:35 AM 53.6 °F 48.2 °F 82% 29.82 in 10.0 mi West 8.1 mph 15.0 mph N/A   Overcast
6:55 AM 53.6 °F 48.2 °F 82% 29.82 in 10.0 mi WSW 10.4 mph - N/A   Overcast
7:15 AM 53.6 °F 48.2 °F 82% 29.82 in 10.0 mi West 8.1 mph 13.8 mph N/A   Overcast
7:35 AM 53.6 °F 46.4 °F 77% 29.83 in 10.0 mi West 15.0 mph - N/A   Overcast
7:55 AM 51.8 °F 44.6 °F 76% 29.84 in 10.0 mi WSW 9.2 mph 19.6 mph N/A   Overcast
8:15 AM 51.8 °F 44.6 °F 76% 29.84 in 10.0 mi WSW 15.0 mph 21.9 mph N/A   Overcast
8:35 AM 51.8 °F 44.6 °F 76% 29.85 in 10.0 mi WSW 17.3 mph - N/A   Overcast
8:55 AM 51.8 °F 42.8 °F 71% 29.86 in 10.0 mi WSW 15.0 mph 24.2 mph N/A   Overcast
9:15 AM 51.8 °F 42.8 °F 71% 29.85 in 10.0 mi WSW 15.0 mph 21.9 mph N/A   Overcast
9:35 AM 50.0 °F 42.8 °F 76% 29.85 in 10.0 mi WSW 16.1 mph 23.0 mph N/A   Overcast
9:55 AM 50.0 °F 41.0 °F 71% 29.86 in 10.0 mi WSW 13.8 mph 23.0 mph N/A   Overcast
10:15 AM 50.0 °F 41.0 °F 71% 29.86 in 10.0 mi WSW 17.3 mph 24.2 mph N/A   Overcast
10:35 AM 50.0 °F 41.0 °F 71% 29.87 in 10.0 mi WSW 11.5 mph 19.6 mph N/A   Overcast
10:55 AM 50.0 °F 41.0 °F 71% 29.87 in 10.0 mi WSW 13.8 mph 19.6 mph N/A   Overcast
11:15 AM 50.0 °F 41.0 °F 71% 29.87 in 10.0 mi WSW 13.8 mph 21.9 mph N/A   Overcast
11:35 AM 50.0 °F 41.0 °F 71% 29.87 in 10.0 mi WSW 15.0 mph 20.7 mph N/A   Overcast
11:55 AM 50.0 °F 41.0 °F 71% 29.88 in 10.0 mi WSW 16.1 mph - N/A   Overcast
12:15 PM 50.0 °F 41.0 °F 71% 29.88 in 10.0 mi West 12.7 mph 20.7 mph N/A   Overcast
12:35 PM 51.8 °F 41.0 °F 67% 29.88 in 10.0 mi West 15.0 mph - N/A   Overcast
12:55 PM 50.0 °F 41.0 °F 71% 29.88 in 10.0 mi West 16.1 mph 23.0 mph N/A   Overcast
1:15 PM 51.8 °F 41.0 °F 67% 29.87 in 10.0 mi WSW 15.0 mph 23.0 mph N/A   Overcast
1:35 PM 51.8 °F 41.0 °F 67% 29.87 in 10.0 mi West 19.6 mph - N/A   Overcast
1:55 PM 51.8 °F 41.0 °F 67% 29.87 in 10.0 mi WSW 13.8 mph 24.2 mph N/A   Overcast
2:15 PM 51.8 °F 41.0 °F 67% 29.86 in 10.0 mi WSW 17.3 mph 26.5 mph N/A   Overcast
2:35 PM 51.8 °F 41.0 °F 67% 29.86 in 10.0 mi West 16.1 mph 25.3 mph N/A   Overcast
2:55 PM 51.8 °F 41.0 °F 67% 29.87 in 10.0 mi WSW 13.8 mph 24.2 mph N/A   Overcast
3:15 PM 51.8 °F 41.0 °F 67% 29.86 in 10.0 mi West 18.4 mph 27.6 mph N/A   Overcast
3:35 PM 51.8 °F 41.0 °F 67% 29.87 in 10.0 mi West 18.4 mph 27.6 mph N/A   Overcast
3:55 PM 51.8 °F 41.0 °F 67% 29.88 in 10.0 mi West 13.8 mph 24.2 mph N/A   Overcast
4:15 PM 51.8 °F 41.0 °F 67% 29.88 in 10.0 mi West 15.0 mph 24.2 mph N/A   Overcast
4:35 PM 50.0 °F 41.0 °F 71% 29.88 in 10.0 mi West 19.6 mph 27.6 mph N/A   Overcast
4:55 PM 50.0 °F 41.0 °F 71% 29.88 in 10.0 mi West 18.4 mph 27.6 mph N/A   Overcast
5:15 PM 50.0 °F 41.0 °F 71% 29.89 in 10.0 mi WSW 16.1 mph 24.2 mph N/A   Overcast
5:35 PM 50.0 °F 41.0 °F 71% 29.89 in 10.0 mi WSW 12.7 mph 23.0 mph N/A   Overcast
5:55 PM 50.0 °F 41.0 °F 71% 29.89 in 10.0 mi West 12.7 mph 20.7 mph N/A   Overcast
6:15 PM 50.0 °F 41.0 °F 71% 29.89 in 10.0 mi West 13.8 mph 23.0 mph N/A   Overcast
6:35 PM 50.0 °F 42.8 °F 76% 29.90 in 10.0 mi West 16.1 mph 25.3 mph N/A   Overcast
6:55 PM 50.0 °F 42.8 °F 76% 29.90 in 10.0 mi West 13.8 mph 25.3 mph N/A   Overcast
7:15 PM 50.0 °F 42.8 °F 76% 29.91 in 10.0 mi West 17.3 mph 23.0 mph N/A   Overcast
7:55 PM 50.0 °F 42.8 °F 76% 29.92 in 10.0 mi West 17.3 mph 25.3 mph N/A   Overcast
8:15 PM 48.2 °F 42.8 °F 82% 29.93 in 10.0 mi West 15.0 mph 23.0 mph N/A   Overcast
8:35 PM 48.2 °F 44.6 °F 87% 29.93 in 10.0 mi West 18.4 mph 24.2 mph N/A   Overcast
8:55 PM 48.2 °F 42.8 °F 82% 29.93 in 10.0 mi West 13.8 mph 21.9 mph N/A   Overcast
9:15 PM 48.2 °F 42.8 °F 82% 29.93 in 10.0 mi West 13.8 mph 21.9 mph N/A   Overcast
9:35 PM 48.2 °F 44.6 °F 87% 29.93 in 10.0 mi West 16.1 mph - N/A   Overcast
9:55 PM 48.2 °F 44.6 °F 87% 29.94 in 10.0 mi West 16.1 mph - N/A   Overcast
10:15 PM 48.2 °F 44.6 °F 87% 29.94 in 10.0 mi West 12.7 mph 20.7 mph N/A   Overcast
10:35 PM 48.2 °F 44.6 °F 87% 29.94 in 10.0 mi West 13.8 mph 21.9 mph N/A   Overcast
10:55 PM 48.2 °F 42.8 °F 82% 29.94 in 10.0 mi West 13.8 mph - N/A   Overcast
11:15 PM 48.2 °F 42.8 °F 82% 29.94 in 10.0 mi West 15.0 mph - N/A   Overcast
11:35 PM 48.2 °F 42.8 °F 82% 29.94 in 10.0 mi West 12.7 mph - N/A   Overcast
11:55 PM 48.2 °F 42.8 °F 82% 29.94 in 10.0 mi West 12.7 mph 18.4 mph N/A   Overcast